Regional Weather Roundup
Issued by NWS

Home | Current Version | Previous Version | Text Only | Print | Product List | Glossary On
Versions: 1 2 3 4 5 6 7 8 9 10 11 12 13 14 15 16 17 18 19 20 21 22 23 24 25 26 27 28 29 30 31 32 33 34 35 36 37 38 39 40 41 42 43 44 45 46 47 48 49 50
000
ASHW40 PHFO 230510
RWRHI

WEATHER ROUNDUP FOR HAWAII
NATIONAL WEATHER SERVICE HONOLULU HI
700 PM HST FRI MAY 22 2015

THIS IS AN AUTOMATED REPORT THAT HAS NOT BEEN QUALITY CONTROLLED.

NOTE..."FAIR" INDICATES FEW OR NO CLOUDS BELOW 12,000 FEET WITH NO
SIGNIFICANT WEATHER AND/OR OBSTRUCTIONS TO VISIBILITY.

* - THESE SITES REPORT LIMITED FIELDS

HIZ001>004-230600-
KAUAI-NIIHAU-

CITY           SKY/WX    TMP DP  RH WIND       PRES   REMARKS
LIHUE APT      CLOUDY    71  65  81 N13       30.01R
PORT ALLEN*    NOT AVBL
POIPU*           N/A     73 N/A N/A NE5G13      N/A
PRINCEVILLE*     N/A     70 N/A N/A MISG        N/A
KOKOLE POINT*  NOT AVBL
MOLOAA DAIRY*  NOT AVBL
WAIMEA HTS*    NOT AVBL
PUU OPAE*      NOT AVBL
PUU LUA*       NOT AVBL
MAKAHA RIDGE*  NOT AVBL
$$

HIZ005>011-230600-
OAHU-

CITY           SKY/WX    TMP DP  RH WIND       PRES   REMARKS
HONOLULU       MOCLDY    75  69  81 N3        29.98R
KALAELOA       MOCLDY    75  66  73 E7        29.98R
KANEOHE MCB    RAIN      73  68  84 N7        29.98R
WHEELER FIELD  FAIR      71  66  86 NW10      29.99R
BELLOWS*       NOT AVBL
KAHUKU*        NOT AVBL
WHEELER*       NOT AVBL
WAIANAE HARBOR NOT AVBL
DILLINGHAM*      N/A     75  66  73 MISG        N/A
KAHUKU TRN*      N/A     70  64  83 NE5G17      N/A
KAWAILOA*        N/A     66  64  94 N6G12       N/A
KII*             N/A     75  66  73 N15G22      N/A
MAKUA RANGE*     N/A     73  66  78 NE12G23     N/A
OAHU FOREST NW NOT AVBL
SCHOFIELD BRK*   N/A     70  66  88 MISG        N/A
SCHOFIELD S*   NOT AVBL
WAIANAE VLY*   NOT AVBL
KUAOKALA*      NOT AVBL
HONOULIUULI*   NOT AVBL
MOKUOLOE IS*   NOT AVBL
PALEHUA*       NOT AVBL
WAIAWA PHB*    NOT AVBL
$$

HIZ012>013-230600-
MOLOKAI-

CITY           SKY/WX    TMP DP  RH WIND       PRES   REMARKS
MOLOKAI AIRPT  MOCLDY    73  66  78 N8        29.99S
KALAUPAPA      NOT AVBL
MAKAPULAPAI*   NOT AVBL
MOLOKAI 1*     NOT AVBL
PUU ALII*      NOT AVBL
$$

HIZ016-230600-
KAHOOLAWE-

CITY           SKY/WX    TMP DP  RH WIND       PRES   REMARKS
KAHOOLAWE*     NOT AVBL
HAKIOAWA*      NOT AVBL
HONOKANAIA*      N/A     78  66  66 W7        29.99R
KANELOA*         N/A     75  64  69 N12G17    30.03R
KEALIALALO*    NOT AVBL
LUA MAKIKA*    NOT AVBL
$$

HIZ014>015-230600-
LANAI-

CITY           SKY/WX    TMP DP  RH WIND       PRES   REMARKS
LANAI CITY     FAIR      72  63  73 N7        30.03R
LANAI 1*       NOT AVBL
$$

HIZ017>028-230600-
MAUI-

CITY           SKY/WX    TMP DP  RH WIND       PRES   REMARKS
KAHULUI        MOCLDY    77  68  73 NE7       29.98R
KAPALUA-W MAUI NOT AVBL
HANA AIRPORT   CLOUDY    75  66  73 W2        30.01S
HANA*          NOT AVBL
HALEAKALA SUMM   N/A     45   9  23 W13         N/A
MAALAEA BAY*   NOT AVBL
HALEAKALA*     NOT AVBL
KAUPO GAP*     NOT AVBL
KULA 1*          N/A     52  51  98 NW3         N/A
$$

HIZ023>026-230600-
BIG ISLAND OF HAWAII COAST AND LOWER SLOPES-

CITY           SKY/WX    TMP DP  RH WIND       PRES   REMARKS
KAILUA KONA    MOCLDY    78  68  71 W5        29.97R
HILO           CLOUDY    76  66  71 N6        29.98R
HONOKAA*       NOT AVBL
KAWAIHAE MWT*  NOT AVBL
KAWAIHAE*        N/A     77 N/A N/A W6          N/A
SOUTH POINT*   NOT AVBL
UPOLU AIRPORT* NOT AVBL
KAMUELA*       CLOUDY    66  63  88 W5        30.09R
HAKALAU*         N/A     53  53 100 SE1         N/A
KALOKO-HONOKO* NOT AVBL
PALI 2*          N/A    N/A N/A N/A VRB5        N/A
KEALAKOMO*       N/A     70  59  68 SW3G9       N/A
KAUPULEHU*     NOT AVBL
KAPAPALA*        N/A     66  64  92 NE1         N/A
LOWER KAHUKU*  NOT AVBL
PUHE CS*       NOT AVBL
PUHO CS*       NOT AVBL
PTA KEAMUKU*     N/A    N/A N/A N/A CALM        N/A
WAIKOLOA*      NOT AVBL
$$

HIZ027>028-230600-
BIG ISLAND OF HAWAII INTERIOR AND SUMMMITS-

CITY           SKY/WX    TMP DP  RH WIND       PRES   REMARKS
BRADSHAW FIELD PTCLDY    55  49  78 W5        30.28R
MK VISITOR CEN NOT AVBL
MAUNA KEA*       N/A     37 -13  11 NW43        N/A  WCI  23
MAUNA LOA*       N/A     45  34  65 MISG        N/A
MAUNA LOA 1*   NOT AVBL
PTA KIPUKA*      N/A     57  54  88 N2G8        N/A
PTA RANGE 17*    N/A     55  52  88 NW3G9       N/A
PTA WEST*        N/A     66  64  94 NW3         N/A
NENE CABIN*    NOT AVBL
AHUMOA*        NOT AVBL
PTA PORTABLE*  NOT AVBL
PUU MALI*        N/A     50  46  87 SW12        N/A
$$

HIC003-230600-
NORTHWEST ISLANDS-

CITY           SKY/WX    TMP DP  RH WIND       PRES   REMARKS
MIDWAY ISLAND  MOSUNNY  N/A N/A N/A E15       30.22S
MIDWAY NOS*    NOT AVBL
FRENCH FRIGATE NOT AVBL
$$

PHZ110>124-180-230600-
BUOY REPORTS

STATION/POSITION TIME  TEMP    WIND        PRES    WAVE   SWELL
                       AIR SEA DIR/SP/G            HT/PER HT/DIR
                 (UTC) (F)     (DEG/KT/KT) (MB)    (FT/S) (FT/D)
BUOY 51001       NOT AVBL
BUOY 51101       0500   73 76   50/ 16/ 19 1017.1R   8/ 8   7/360
BUOY 51100       NOT AVBL
BUOY 51002       0500   78 81   40/  6/  8 1014.6R   4/ 8   3/ 90
BUOY 51003       0400   79 81   30/  8/ 10 1014.2R   5/14   5
BUOY 51004       0400   77 80   80/  4/  6 1014.9R   5/14   5/180
BARBERS PT BUOY  NOT AVBL
WAIMEA BAY BUOY  0500      78                N/A     3/ 4   2/310
KAILUA BAY BUOY  0500      78                N/A     4/ 4   2/130
LANAI BUOY       NOT AVBL
BARBERS PT 2     0500      78                N/A     3/15   2/200
PAUWELA MAUI     0500      78                N/A     3/ 8   2/350
HILO             0500      78                N/A     4/ 8
KANEOHE BAY BUOY 0500      77                N/A     3/ 8
HANALEI KAUAI    0500      79                N/A     7/ 9   2/310
KAHULUI HARBOR   0500   76 78  360/  9/ 11 1014.9S
HONOLULU HARBOR  0500   76 79   50/  6/ 11 1014.9R
KILO NALU        NOT AVBL
HILO HARBOR      0500   76 77  350/  7/  8 1014.6R
MOKUOLOE         0500      78              1015.4S
NAWILIWILI       0500   72 79  330/  5/  8 1015.8R
WHOTS BUOY       NOT AVBL
BUOY 51028       NOT AVBL
$$

......................KEY........................................
  SKY/WX - SKY CONDITIONS/PRESENT WEATHER
  TMP    - TEMPERATURE IN FAHRENHEIT
  DWPT   - DEWPOINT IN FAHRENHEIT
  RH     - RELATIVE HUMIDITY IN PERCENT
  WIND   - DIRECTION AND SPEED /MPH FOR ISLANDS...KTS FOR BUOYS/
  PRES   - MEAN SEA LEVEL PRESSURE IN INCHES OF HG
  VSB    - VISIBILITY IN MILES
  HX     - HEAT INDEX
  WCI    - WIND CHILL INDEX
  VRB    - VARIABLE WIND DIRECTION
  N/A    - NOT AVAILABLE


USA.gov is the U.S. government's official web portal to all federal, state and local government web resources and services.